Regional Weather Roundup
Issued by NWS

Home | Current Version | Previous Version | Graphics & Text | Print | Product List | Glossary On
Versions: 1 2 3 4 5 6 7 8 9 10 11 12 13 14 15 16 17 18 19 20 21 22 23 24 25 26 27 28 29 30 31 32 33 34 35 36 37 38 39 40 41 42 43 44 45 46 47 48 49 50
000
ASUS43 KDMX 061107
RWRIA

WEATHER ROUNDUP FOR IOWA
NATIONAL WEATHER SERVICE DES MOINES IA
600 AM CDT WED MAY 06 2015

NOTE: "FAIR" INDICATES FEW OR NO CLOUDS BELOW 12,000 FEET WITH NO
SIGNIFICANT WEATHER AND/OR OBSTRUCTIONS TO VISIBILITY.

* - THESE STATIONS ARE NOT NWS STATIONS...THUS NOT UNDER NWS
QUALITY CONTROL.  THEY ALSO DO NOT REPORT WEATHER SUCH
AS PRECIPITATION OR FOG.

IAZ001>003-012>014-020>022-031>034-043>046-061200-
   NORTHWEST IOWA

CITY           SKY/WX    TMP DP  RH WIND       PRES   REMARKS
CARROLL *      CLEAR     59  59 100 SE7       29.96F
CHEROKEE *     CLOUDY    63  61  94 SE8       29.94F
DENISON *      PTCLDY    61  61 100 E9        29.92S
LE MARS *      CLOUDY    63  61  94 SE9G15    29.91F
ORANGE CITY *  CLOUDY    61  57  88 SE8       29.92F
SHELDON *      CLOUDY    63  63 100 SE14      29.93S FOG
SIOUX CITY     CLOUDY    63  59  87 SE12      29.89F
SPENCER        CLOUDY    62  61  96 SE13      29.97F FOG
STORM LAKE *   CLOUDY    61  61 100 SE9       29.97F FOG
$$

IAZ055>058-069>071-079>083-090>094-061200-
   SOUTHWEST IOWA

CITY           SKY/WX    TMP DP  RH WIND       PRES   REMARKS
ATLANTIC *     CLEAR     63  59  88 E9        29.94S
AUDUBON *      CLEAR     61  55  82 E6        29.96F
CLARINDA *     PTCLDY    64  59  82 S7        29.94S
COUNCIL BLFS * CLOUDY    63  63 100 SE13      29.90F
CRESTON *      PTCLDY    61  59  94 SE12      29.97S
HARLAN  *      PTCLDY    61  61 100 SE7       29.96F
LAMONI         MOCLDY    66  56  70 SE9       29.98S
RED OAK *      CLOUDY    63  59  88 SE10      29.92S
SHENANDOAH *   MOCLDY    64  61  88 SE10      29.92S
$$

IAZ047>049-059>061-072>074-084-061200-
   CENTRAL IOWA

CITY           SKY/WX    TMP DP  RH WIND       PRES   REMARKS
AMES           MOCLDY    62  60  93 E6        30.01S FOG
ANKENY *       PTCLDY    63  63 100 E5        30.00S FOG
CHARITON *     CLEAR     63  57  82 SE9       30.01S
DES MOINES     MOCLDY    65  59  81 SE10      29.99F
GRINNELL*      FOG       63  61  94 E10       30.05S VSB 1
KNOXVILLE *    CLEAR     63  57  82 SE7       30.01S
MARSHALLTOWN   CLOUDY    62  61  96 SE13      30.04R FOG
PELLA *          N/A     63  63 100 SE7       30.04R FOG
PERRY *          N/A     63  61  94 SE9       29.99R FOG
$$

IAZ004>006-015-016-023>025-035-036-061200-
   NORTH CENTRAL IOWA

CITY           SKY/WX    TMP DP  RH WIND       PRES   REMARKS
ALGONA *       LGT RAIN  61  61 100 SE13      29.99F
CLARION *      FOG       61  61 100 E13G20    30.02F VSB 1/4
ESTHERVILLE    FOG       59  59 100 SE14      29.99F VSB 3/4
FORT DODGE *   CLOUDY    63  57  82 E16       30.00S
MASON CITY     FOG       56  56 100 SE13      30.06F VSB 1/4
FOREST CITY *  FOG       55  55 100 E12       30.04F VSB 1/2
IOWA FALLS *   FOG       59  59 100 E9        30.05S VSB 1/4
$$

IAZ007>011-017>019-026>030-037>042-050>054-066-061200-
   NORTHEAST IOWA

CITY           SKY/WX    TMP DP  RH WIND       PRES   REMARKS
CEDAR RAPIDS   FOG       56  56 100 E8        30.07S VSB 3/4
CHARLES CITY * FOG       55  55 100 SE10      30.08S VSB 1/4
CLINTON *      CLOUDY    55  54  94 E12       30.14S VSB 3/4
DECORAH *      FOG       54  54 100 SE7G15    30.09F VSB 1/4
DUBUQUE        FOG       53  52  96 SE8       30.12S VSB 1/4
MONTICELLO *   FOG       55  55 100 E9        30.10S VSB 3/4
OELWEIN *      FOG       55  55 100 SE14      30.09S VSB 1/4
WATERLOO       FOG       56  56 100 E10       30.07S VSB 1/2
$$

IAZ064-065-067-068-078-061200-
   EAST CENTRAL IOWA

CITY           SKY/WX    TMP DP  RH WIND       PRES   REMARKS
DAVENPORT      FOG       55  54  96 E10       30.11S VSB 3/4
IOWA CITY      CLOUDY    56  55  97 E5        30.10S FOG
MT. PLEASANT *   N/A     61  61 100 E6        30.07S FOG
MUSCATINE *    CLOUDY    57  55  94 CALM      30.10R FOG
QUAD CITIES    CLOUDY    56  54  93 E9        30.10F FOG
$$

IAZ062-063-075>077-085>089-095>099-061200-
   SOUTHEAST IOWA

CITY           SKY/WX    TMP DP  RH WIND       PRES   REMARKS
BURLINGTON     CLEAR     61  61 100 E3        30.08R FOG
FAIRFIELD *    FOG       61  61 100 E6        30.06S VSB 1
FORT MADISON * CLEAR     64  59  82 S6        30.09R
KEOKUK *       PTCLDY    63  59  88 SE5       30.07R
OSKALOOSA *    MOCLDY    61  59  94 SE10      30.05S FOG
CENTERVILLE *  CLEAR     61  59  94 SE9       30.05R
OTTUMWA        CLEAR     60  59  96 SE7       30.04R
WASHINGTON *   FOG       59 N/A N/A E7        30.08R VSB 3/4
$$

ABBREVIATIONS USED IN REMARKS
   TC - TEMPERATURES IN CELSIUS
  WCI - WIND CHILL INDEX
   HX - HEAT INDEX
  VSB - VISIBILITY
$$




USA.gov is the U.S. government's official web portal to all federal, state and local government web resources and services.